World > North America > United States > Michigan > Birch Run   Village of Birch Run, Michigan

Birch Run, MI Hourly Weather Updates

Feedback E-mail the Weather

Quick Clicks

Birch Run, MI Weather Maps

°F °C°F °C
Birch Run Weather Map
UTC Time: 5/24/2024, 07:22
Your Time:

Birch Run, MI Regional Weather

Expires:202405240800;;765058
ASUS43 KDTX 240710
RWRMI 
MICHIGAN HOURLY REGIONAL WEATHER ROUNDUP
NATIONAL WEATHER SERVICE DETROIT/PONTIAC MI
300 AM EDT FRI MAY 24 2024

NOTE: "FAIR" INDICATES FEW OR NO CLOUDS BELOW 12,000 FEET WITH NO
SIGNIFICANT WEATHER AND/OR OBSTRUCTION TO VISIBILITY.


MIZ047>049-052>055-059>063-066>070-074>076-081>083-240800-
SOUTHEAST LOWER MICHIGAN
  
CITY           SKY/WX    TMP DP  RH WIND       PRES   REMARKS
ADRIAN         CLEAR     58  50  75 CALM      29.93S TC  14           
ALMA           CLEAR     50  46  85 CALM      29.92S TC  10           
ANN ARBOR      CLEAR     51  48  89 CALM      29.92R TC  11           
BAD AXE        CLEAR     51  47  87 CALM      29.90S TC  10           
CARO           CLEAR     48  48  99 CALM      29.90F TC   9           
DETROIT CITY   CLEAR     63  45  51 CALM      29.90F TC  17           
DETROIT        PTCLDY    58  50  75 W3        29.91F TC  14           
FLINT          CLEAR     50  46  86 S3        29.92S TC  10           
GROSSE ILE     MOCLDY    60  52  77 CALM      29.91S TC  15           
HILLSDALE      CLEAR     50  44  78 CALM      29.93S TC  10           
HOWELL         CLEAR     54  48  80 CALM      29.92S TC  12           

CITY           SKY/WX    TMP DP  RH WIND       PRES   REMARKS
JACKSON        CLEAR     49  47  93 SW3       29.93S TC   9           
LAMBERTVILLE   CLEAR     57  51  80 CALM      29.92R TC  14           
LANSING        CLEAR     52  46  80 CALM      29.92F TC  11           
LAPEER         CLEAR     49  49 100 CALM      29.92S TC   9           
MASON          CLEAR     52  45  76 CALM      29.92F TC  11           
MONROE         CLEAR     55  49  81 CALM      29.91R TC  13           
MT. CLEMENS    CLEAR     60  46  57 W6        29.87S TC  16           
PONTIAC        CLEAR     53  47  79 CALM      29.93S TC  12           
PORT HOPE        N/A     54  44  69 N9G17     29.91R TC  12           
PORT HURON     CLEAR     52  50  93 CALM      29.90S TC  11           
TRI CITIES     CLEAR     59  45  59 SW6       29.91S TC  15           
MIDLAND        CLEAR     49  47  91 N7        29.91S TC  10           
TROY           CLEAR     62  44  52 NW3       29.93S TC  17           
SAGINAW HB     CLEAR     57  46  67 W6        29.90S TC  14           
$$

SKY/WX - Weather  TMP - Temperature  DP - Dew Point  RH - Humidity
WIND - Wind Direction/Speed PRES - Barometric Pressure VSB - Visibility
WCI - Wind Chill Index E13G22 Wind - East Wind 13 mph/Gusts of 22 mph

Trending Headlines

Trending Entertainment Headlines

Birch Run Radar Loop

Use the map search tool if you want to place a location marker on the radar map...

Birch Run Quick Facts

National Two Day Weather Forecast


E-mail the Birch Run Weather Forecast

Voice your opinion or tell us about page issues...